Weather observations for the past three days for
Roosevelt Airport
Imperial (Metric)
Date Time (ast) Wind (mph) Vis. (mi.) Weather Sky Cond. Temperature (ºF) Relative Humidity Wind Chill (°F) Heat Index (°F) Pressure Precipitation (in)
Air Dwpt 6 hour altimeter (in) sea level (mb) 1 hr 3 hr 6 hr
Max. Min.
06 12:55 E 15 0.00 NULL NULL 86 75.2 70% 95 0 0.0
06 11:55 E 15 0.00 NULL NULL 84.2 75.2 74% 92 0 0.0
06 10:55 E 15 0.00 NULL NULL 86 75.2 70% 95 0 0.0
06 09:55 E 14 0.00 NULL NULL 84.2 75.2 74% 92 0 0.0
06 08:55 E 16 0.00 NULL NULL 84.2 75.2 74% 92 0 0.0
06 07:55 E 14 0.00 NULL NULL 82.4 73.4 74% 88 0 0.0
06 06:55 E 14 0.00 NULL NULL 80.6 75.2 84% 86 0 0.0
06 05:55 E 12 0.00 NULL NULL 78.8 73.4 84% 82 0 0.0
06 04:55 E 12 0.00 NULL NULL 78.8 73.4 84% 82 0 0.0
06 03:55 E 10 0.00 NULL NULL 78.8 73.4 84% 82 0 0.0
06 02:55 E 12 0.00 NULL NULL 78.8 73.4 84% 82 0 0.0
06 01:55 E 10 0.00 NULL NULL 78.8 73.4 84% 82 0 0.0
06 00:55 E 12 0.00 NULL NULL 78.8 73.4 84% 82 0 0.0
05 23:55 E 13 0.00 NULL NULL 78.8 73.4 84% 82 0 0.0
05 22:55 E 12 0.00 NULL NULL 78.8 73.4 84% 82 0 0.0
05 21:55 E 9 0.00 NULL NULL 78.8 73.4 84% 82 0 0.0
05 20:55 E 9 0.00 NULL NULL 78.8 73.4 84% 82 0 0.0
05 19:55 E 9 0.00 NULL NULL 78.8 73.4 84% 82 0 0.0
05 18:55 E 8 0.00 NULL NULL 80.6 73.4 79% 85 0 0.0
05 17:55 E 10 0.00 NULL NULL 82.4 73.4 74% 88 0 0.0
05 16:55 E 13 0.00 NULL NULL 82.4 73.4 74% 88 0 0.0
05 15:55 E 13 0.00 NULL NULL 84.2 73.4 70% 91 0 0.0
05 14:55 SE 13 0.00 NULL NULL 84.2 73.4 70% 91 0 0.0
05 13:55 E 15 0.00 NULL NULL 86 73.4 66% 93 0 0.0
05 12:55 E 16 0.00 NULL NULL 86 73.4 66% 93 0 0.0
05 11:55 E 18 0.00 NULL NULL 84.2 73.4 70% 91 0 0.0
05 10:55 SE 10 0.00 NULL NULL 84.2 75.2 74% 92 0 0.0
05 09:55 SE 10 0.00 NULL NULL 84.2 71.6 66% 90 0 0.0
05 08:55 E 15 0.00 NULL NULL 84.2 73.4 70% 91 0 0.0
05 07:55 E 14 0.00 NULL NULL 82.4 75.2 79% 89 0 0.0
05 06:55 E 12 0.00 NULL NULL 80.6 73.4 79% 85 0 0.0
05 05:55 E 12 0.00 NULL NULL 78.8 73.4 84% 82 0 0.0
05 04:55 E 5 0.00 NULL NULL 78.8 73.4 84% 82 0 0.0
05 03:55 E 12 0.00 NULL NULL 80.6 73.4 79% 85 0 0.0
05 02:55 E 10 0.00 NULL NULL 80.6 73.4 79% 85 0 0.0
05 01:55 E 13 0.00 NULL NULL 78.8 73.4 84% 82 0 0.0
05 00:55 E 10 0.00 NULL NULL 80.6 73.4 79% 85 0 0.0
04 23:55 E 8 0.00 NULL NULL 78.8 73.4 84% 82 0 0.0
04 22:55 SE 6 0.00 NULL NULL 78.8 73.4 84% 82 0 0.0
04 21:55 E 7 0.00 NULL NULL 78.8 73.4 84% 82 0 0.0
04 20:55 SE 8 0.00 NULL NULL 78.8 73.4 84% 82 0 0.0
04 19:55 SE 7 0.00 NULL NULL 78.8 73.4 84% 82 0 0.0
04 18:55 SE 7 0.00 NULL NULL 80.6 73.4 79% 85 0 0.0
04 17:55 SE 8 0.00 NULL NULL 80.6 75.2 84% 86 0 0.0
04 16:55 E 8 0.00 NULL NULL 82.4 77 84% 91 0 0.0
04 15:55 E 10 0.00 NULL NULL 84.2 75.2 74% 92 0 0.0
04 14:55 E 9 0.00 NULL NULL 82.4 73.4 74% 88 0 0.0
04 13:55 SE 9 0.00 NULL NULL 82.4 73.4 74% 88 0 0.0
04 12:55 E 17 0.00 NULL NULL 84.2 73.4 70% 91 0 0.0
04 11:55 E 15 0.00 NULL NULL 84.2 77 79% 94 0 0.0
04 10:55 E 16 0.00 NULL NULL 84.2 75.2 74% 92 0 0.0
04 09:55 E 16 0.00 NULL NULL 84.2 73.4 70% 91 0 0.0
04 08:55 E 14 0.00 NULL NULL 84.2 73.4 70% 91 0 0.0
04 07:55 E 13 0.00 NULL NULL 82.4 73.4 74% 88 0 0.0
04 06:55 E 9 0.00 NULL NULL 78.8 73.4 84% 82 0 0.0
04 05:55 E 15 0.00 NULL NULL 78.8 73.4 84% 82 0 0.0
04 04:55 E 10 0.00 NULL NULL 78.8 73.4 84% 82 0 0.0
04 03:55 E 13 0.00 NULL NULL 78.8 73.4 84% 82 0 0.0
04 02:55 E 13 0.00 NULL NULL 78.8 73.4 84% 82 0 0.0
04 01:55 E 13 0.00 NULL NULL 78.8 73.4 84% 82 0 0.0
04 00:55 E 9 0.00 NULL NULL 78.8 73.4 84% 82 0 0.0
03 23:55 E 12 0.00 NULL NULL 78.8 73.4 84% 82 0 0.0
03 22:55 E 13 0.00 NULL NULL 78.8 73.4 84% 82 0 0.0
03 21:55 E 10 0.00 NULL NULL 78.8 73.4 84% 82 0 0.0
03 20:55 E 12 0.00 NULL NULL 78.8 73.4 84% 82 0 0.0
03 19:55 E 10 0.00 NULL NULL 78.8 73.4 84% 82 0 0.0
03 18:55 E 13 0.00 NULL NULL 78.8 71.6 79% 82 0 0.0
03 17:55 E 12 0.00 NULL NULL 80.6 71.6 74% 85 0 0.0
03 16:55 E 13 0.00 NULL NULL 82.4 71.6 70% 87 0 0.0
03 15:55 E 14 0.00 NULL NULL 84.2 73.4 70% 91 0 0.0
03 14:55 E 16 0.00 NULL NULL 84.2 73.4 70% 91 0 0.0
03 13:55 E 15 0.00 NULL NULL 84.2 75.2 74% 92 0 0.0
Date Time (ast) Wind (mph) Vis. (mi.) Weather Sky Cond. Air Dwpt Max. Min. Relative Humidity Wind Chill (°F) Heat Index (°F) altimeter (in) sea level (mb) 1 hr 3 hr 6 hr
6 hour
Temperature (ºF) Pressure Precipitation (in)